Regional Weather Roundup
Issued by NWS

Home | Current Version | Previous Version | Graphics & Text | Print | Product List | Glossary On
Versions: 1 2 3 4 5 6 7 8 9 10 11 12 13 14 15 16 17 18 19 20 21 22 23 24 25 26 27 28 29 30 31 32 33 34 35 36 37 38 39 40 41 42 43 44 45 46 47 48 49 50
000
ASUS43 KIND 281800
RWRIN

WEATHER ROUNDUP FOR INDIANA
NATIONAL WEATHER SERVICE INDIANAPOLIS IN
200 PM EDT WED JUN 28 2017

NOTE: "FAIR" INDICATES FEW OR NO CLOUDS BELOW 12,000 FEET WITH NO
SIGNIFICANT WEATHER AND/OR OBSTRUCTIONS TO VISIBILITY.

* - STATION DOES NOT REPORT WEATHER SUCH AS PRECIPITATION OR FOG.

+ - STATION NOT QUALITY CONTROLLED BY THE NATIONAL WEATHER SERVICE.
    USE DATA WITH CAUTION...ESPECIALLY DEWPOINT AND RELATIVE
    HUMIDITY OBSERVATIONS.

INZ001>003-010>013-019-020-281900-
NORTHWEST INDIANA

CITY           SKY/WX    TMP DP  RH WIND       PRES   REMARKS
GARY /AIRPORT/ LGT RAIN  70  55  60 S9        29.99F
KNOX *+        CLOUDY    73  43  33 S13       30.03F
MICHIGAN CITY+ CLOUDY    72  54  53 S7        30.02F
MONTICELLO +   CLOUDY    76  56  49 S8        30.04F
6HR MIN TEMP:  59; 6HR MAX TEMP:  76;

RENSSELAER +   CLOUDY    75  52  43 S17       30.03S

$$

LMZ046-743>745-281900-
SOUTHERN LAKE MICHIGAN

STATION/POSITION TIME  TEMP    WIND        PRES    WAVE
                       AIR SEA DIR/SP/G            HT
                 (UTC) (F)     (DEG/KT/KT) (MB)    (FT)
BURNS HARBOR     1740   72     190/  9/ 16 1016.3F
MICHIGAN CITY    1730   71     170/ 13/ 15   N/A
5NW MICH CITY    1750   70 66  190/ 10/ 14   N/A     2

$$

INZ004-005-014>016-021>024-281900-
NORTH CENTRAL INDIANA

CITY           SKY/WX    TMP DP  RH WIND       PRES   REMARKS
ELKHART        CLOUDY    73  54  49 SW10G17   30.04F
GOSHEN         CLOUDY    75  51  43 S17       30.05F
6HR MIN TEMP:  61; 6HR MAX TEMP:  76;

PERU/GRISSOM   PTSUNNY   76  55  48 SW12      30.06F
6HR MIN TEMP:  60; 6HR MAX TEMP:  78;

SOUTH BEND     CLOUDY    74  55  51 SW20      30.04S
6HR MIN TEMP:  62; 6HR MAX TEMP:  74; 6HR PCP: TRACE;


$$

INZ006>009-017-018-025>027-281900-
NORTHEAST INDIANA

CITY           SKY/WX    TMP DP  RH WIND       PRES   REMARKS
ANGOLA *+      SUNNY     77  72  83 S14       30.07F
FORT WAYNE     PTSUNNY   76  51  41 S14G23    30.10F
6HR MIN TEMP:  60; 6HR MAX TEMP:  78;

KENDALLVILLE + MOSUNNY   77  51  41 SW15G24   30.08F

$$

INZ028-029-035-036-043>045-051>053-281900-
WEST CENTRAL INDIANA

CITY           SKY/WX    TMP DP  RH WIND       PRES   REMARKS
CRAWFORDSVL +  MOSUNNY   76  57  52 S10G20    30.07F
6HR MIN TEMP:  57; 6HR MAX TEMP:  76;

LAFAYETTE      PTSUNNY   76  58  53 S13G22    30.04F
6HR MIN TEMP:  59; 6HR MAX TEMP:  76;

TERRE HAUTE    MOSUNNY   80  56  43 S13       30.06F
6HR MIN TEMP:  59; 6HR MAX TEMP:  81;


$$

INZ030>032-037>040-046>048-054>057-064-065-281900-
CENTRAL INDIANA

CITY           SKY/WX    TMP DP  RH WIND       PRES   REMARKS
ANDERSON       SUNNY     79  52  38 MISG        N/A
COLUMBUS       SUNNY     77  45  31 S16       30.12F
GREENWOOD *+   MOSUNNY   77  52  41 SW8       30.10F
INDIANAPOLIS   CLOUDY    76  56  49 S14       30.08F
6HR MIN TEMP:  60; 6HR MAX TEMP:  77;

-EAGLE CREEK   MOSUNNY   78  54  43 S9G18     30.08F
6HR MIN TEMP:  61; 6HR MAX TEMP:  79;

KOKOMO +       CLOUDY    77  54  44 S15G22    30.08F
6HR MIN TEMP:  61; 6HR MAX TEMP:  78;

MT COMFORT *+  PTSUNNY   77  52  41 SW14      30.11F
SHELBYVILLE    MOSUNNY   79  53  40 SW13G22   30.10F
6HR MIN TEMP:  61; 6HR MAX TEMP:  79;


$$

INZ033-034-041-042-049-050-058-059-281900-
EAST CENTRAL INDIANA

CITY           SKY/WX    TMP DP  RH WIND       PRES   REMARKS
MUNCIE         MOSUNNY   78  51  38 SW12G22   30.10F
6HR MIN TEMP:  63; 6HR MAX TEMP:  79;

RICHMOND +     MOSUNNY   73  52  46 SW14G20   30.15F

$$

INZ060-061-067>069-081>083-085>088-281900-
SOUTHWEST INDIANA

CITY           SKY/WX    TMP DP  RH WIND       PRES   REMARKS
EVANSVILLE     CLOUDY    83  57  41 S12       30.08F
6HR MIN TEMP:  61; 6HR MAX TEMP:  83;

HUNTINGBURG *+ CLOUDY    81  59  47 S10G16    30.10F
6HR MIN TEMP:  61; 6HR MAX TEMP:  81;


$$

INZ062-063-066-070>080-084-089>092-281900-
SOUTH CENTRAL AND SOUTHEAST INDIANA

CITY           SKY/WX    TMP DP  RH WIND       PRES   REMARKS
BLOOMINGTON    CLOUDY    80  53  39 SW12      30.10F
6HR MIN TEMP:  60; 6HR MAX TEMP:  80;

SEYMOUR +      SUNNY     81  54  39 S7G17     30.11F

$$





USA.gov is the U.S. government's official web portal to all federal, state and local government web resources and services.